{"data":{"norad_id":53847,"intl_designator":"2022-114AF","name":"STARLINK-4777","alt_names":[],"object_type":"PAYLOAD","status":"ACTIVE","operator":null,"country":"US","launch_date":"2022-09-19","launch_site_code":"AFETR","launch_vehicle":null,"mission":null,"orbit_class":"UNKNOWN","rcs_meters":null,"size_class":null,"mass_kg":null,"dimensions":null,"purposes":["comms"],"wikipedia_slug":null,"has_3d_model":false,"image_url":null,"decayed_at":null,"tle_current":{"epoch":"2026-05-24T17:46:05.679264Z","epoch_age_seconds":107951,"freshness":"FRESH","line1":"1 53847U 22114AF  26144.74034351 -.00000246  00000+0  26343-5 0  9996","line2":"2 53847  53.2149 312.6470 0001576  99.8999 260.2171 15.08842460204450","mean_motion":15.0884246,"eccentricity":0.0001576,"inclination_deg":53.2149,"raan_deg":312.647,"arg_perigee_deg":99.8999,"mean_anomaly_deg":260.2171,"bstar":2.6343e-6,"rev_number":20445,"period_min":95.437399077436,"perigee_km":538.64561297419,"apogee_km":540.82612650273,"semimajor_km":6917.8728697385,"source":"CELESTRAK","updated_at":"2026-05-25T13:38:17.575631Z"}}}